2024/01/18 00:00:00, 0.0, 5.6
2024/01/18 00:10:00, 0.0, 5.9
2024/01/18 00:20:00, 0.0, 5.7
2024/01/18 00:30:00, 0.0, 5.8
2024/01/18 00:40:00, 0.0, 5.8
2024/01/18 00:50:00, 0.0, 5.8
2024/01/18 01:00:00, 0.0, 6.3
2024/01/18 01:10:00, 0.0, 6.0
2024/01/18 01:20:00, 0.0, 6.2
2024/01/18 01:30:00, 0.0, 6.0
2024/01/18 01:40:00, 0.0, 6.0
2024/01/18 01:50:00, 0.0, 6.0
2024/01/18 02:00:00, 0.0, 6.0
2024/01/18 02:10:00, 0.0, 6.3
2024/01/18 02:20:00, 0.0, 6.3
2024/01/18 02:30:00, 0.0, 6.0
2024/01/18 02:40:00, 0.0, 6.3
2024/01/18 02:50:00, 0.0, 6.3
2024/01/18 03:00:00, 0.0, 6.6
2024/01/18 03:10:00, 0.0, 6.8
2024/01/18 03:20:00, 0.0, 6.9
2024/01/18 03:30:00, 0.0, 7.1
2024/01/18 03:40:00, 0.0, 7.4
2024/01/18 03:50:00, 0.0, 7.4
2024/01/18 04:00:00, 0.0, 7.6
2024/01/18 04:10:00, 0.0, 7.4
2024/01/18 04:20:00, 0.0, 7.6
2024/01/18 04:30:00, 0.0, 7.7
2024/01/18 04:40:00, 0.0, 7.5
2024/01/18 04:50:00, 0.0, 7.9
2024/01/18 05:00:00, 0.0, 7.8
2024/01/18 05:10:00, 0.0, 8.3
2024/01/18 05:20:00, 0.0, 8.4
2024/01/18 05:30:00, 0.0, 8.2
2024/01/18 05:40:00, 0.0, 8.5
2024/01/18 05:50:00, 0.0, 8.5
2024/01/18 06:00:00, 0.0, 8.2
2024/01/18 06:10:00, 0.0, 8.4
2024/01/18 06:20:00, 0.0, 8.3
2024/01/18 06:30:00, 0.0, 8.5
2024/01/18 06:40:00, 0.0, 8.3
2024/01/18 06:50:00, 0.0, 8.4
2024/01/18 07:00:00, 0.0, 8.2
2024/01/18 07:10:00, 0.0, 8.9
2024/01/18 07:20:00, 0.0, 9.0
2024/01/18 07:30:00,---, 9.4
2024/01/18 07:40:00, 0.0,10.2
2024/01/18 07:50:00, 0.0,10.2
2024/01/18 08:00:00, 0.0,11.1
2024/01/18 08:10:00, 0.0,10.4
2024/01/18 08:20:00, 0.0,10.7
2024/01/18 08:30:00, 0.0,10.4
2024/01/18 08:40:00, 0.0,10.6
2024/01/18 08:50:00, 0.0,10.6
2024/01/18 09:00:00, 0.0,10.6
2024/01/18 09:10:00, 0.0,10.6
2024/01/18 09:20:00, 0.0,10.5
2024/01/18 09:30:00, 0.0,10.9
2024/01/18 09:40:00, 0.0,10.5
2024/01/18 09:50:00, 0.0,10.2
2024/01/18 10:00:00, 0.0,11.1
2024/01/18 10:10:00, 0.0,10.4
2024/01/18 10:20:00, 0.0,10.8
2024/01/18 10:30:00,---,10.8
2024/01/18 10:40:00, 0.0,10.9
2024/01/18 10:50:00,---,10.9
2024/01/18 11:00:00, 0.0,10.9
2024/01/18 11:10:00, 0.0,11.2
2024/01/18 11:20:00, 0.0,10.8
2024/01/18 11:30:00, 0.0,11.3
2024/01/18 11:40:00, 0.0,11.5
2024/01/18 11:50:00, 0.0,11.6
2024/01/18 12:00:00, 0.0,11.7
2024/01/18 12:10:00, 0.0,11.9
2024/01/18 12:20:00, 0.0,12.0
2024/01/18 12:30:00, 0.0,12.0
2024/01/18 12:40:00, 0.0,11.9
2024/01/18 12:50:00, 0.0,12.3
2024/01/18 13:00:00, 0.0,13.1
2024/01/18 13:10:00, 0.0,12.7
2024/01/18 13:20:00, 0.0,13.1
2024/01/18 13:30:00, 0.0,13.2
2024/01/18 13:40:00, 0.0,13.5
2024/01/18 13:50:00, 0.0,13.2
2024/01/18 14:00:00, 0.0,13.1
2024/01/18 14:10:00, 0.0,13.1
2024/01/18 14:20:00, 0.0,13.1
2024/01/18 14:30:00, 0.0,13.5
2024/01/18 14:40:00, 0.0,13.1
2024/01/18 14:50:00, 0.0,12.8
2024/01/18 15:00:00, 0.0,12.4
2024/01/18 15:10:00, 0.0,12.4
2024/01/18 15:20:00, 0.0,12.0
2024/01/18 15:30:00, 0.0,12.0
2024/01/18 15:40:00, 0.0,12.0
2024/01/18 15:50:00, 0.0,12.1
2024/01/18 16:00:00, 0.0,12.0
2024/01/18 16:10:00, 0.0,12.0
2024/01/18 16:20:00, 0.0,12.0
2024/01/18 16:30:00, 0.0,11.7
2024/01/18 16:40:00, 0.0,11.5
2024/01/18 16:50:00, 0.0,11.7
2024/01/18 17:00:00, 0.0,11.6
2024/01/18 17:10:00, 0.0,11.5
2024/01/18 17:20:00, 0.0,11.9
2024/01/18 17:30:00, 0.0,11.7
2024/01/18 17:40:00, 0.0,11.4
2024/01/18 17:50:00, 0.0,11.3
2024/01/18 18:00:00, 0.0,11.3
2024/01/18 18:10:00, 0.0,11.2
2024/01/18 18:20:00, 0.0,11.0
2024/01/18 18:30:00, 0.0,10.8
2024/01/18 18:40:00, 0.0,10.9
2024/01/18 18:50:00, 0.0,10.7
2024/01/18 19:00:00, 0.0,10.8
2024/01/18 19:10:00, 0.0,10.7
2024/01/18 19:20:00, 0.0,10.4
2024/01/18 19:30:00, 0.0,10.2
2024/01/18 19:40:00, 0.0,10.2
2024/01/18 19:50:00, 0.0,10.3
2024/01/18 20:00:00, 0.0,10.2
2024/01/18 20:10:00, 0.0,10.1
2024/01/18 20:20:00, 0.0, 9.9
2024/01/18 20:30:00, 0.0, 9.9
2024/01/18 20:40:00, 0.0, 9.9
2024/01/18 20:50:00, 0.0, 9.8
2024/01/18 21:00:00, 0.0, 9.8
2024/01/18 21:10:00, 0.0, 9.6
2024/01/18 21:20:00, 0.0, 9.6
2024/01/18 21:30:00, 0.0, 9.6
2024/01/18 21:40:00, 0.0, 9.6
2024/01/18 21:50:00, 0.0, 9.5
2024/01/18 22:00:00, 0.0, 9.5
2024/01/18 22:10:00, 0.0, 9.4
2024/01/18 22:20:00, 0.0, 9.2
2024/01/18 22:30:00, 0.0, 9.1
2024/01/18 22:40:00, 0.0, 9.2
2024/01/18 22:50:00, 0.0, 8.8
2024/01/18 23:00:00, 0.0, 8.9
2024/01/18 23:10:00, 0.0, 8.9
2024/01/18 23:20:00, 0.0, 8.8
2024/01/18 23:30:00, 0.0, 8.8
2024/01/18 23:40:00, 0.0, 9.0
2024/01/18 23:50:00, 0.0, 8.7
